TimeMST,TemperatureF,Dew PointF,Humidity,Sea Level PressureIn,VisibilityMPH,Wind Direction,Wind SpeedMPH,Gust SpeedMPH,PrecipitationIn,Events,Conditions,WindDirDegrees,DateUTC
12:53 AM,24.1,19.0,81,30.43,10.0,Calm,Calm,-,N/A,,Clear,0,2011-11-10 07:53:00
1:53 AM,23.0,19.0,85,30.42,10.0,Calm,Calm,-,N/A,,Clear,0,2011-11-10 08:53:00
2:53 AM,21.9,17.1,82,30.41,10.0,Calm,Calm,-,N/A,,Clear,0,2011-11-10 09:53:00
3:53 AM,21.9,17.1,82,30.39,10.0,Calm,Calm,-,N/A,,Clear,0,2011-11-10 10:53:00
4:53 AM,19.9,16.0,85,30.38,10.0,Calm,Calm,-,N/A,,Clear,0,2011-11-10 11:53:00
5:53 AM,21.2,17.6,86,30.27,10.0,Calm,Calm,-,N/A,,Clear,0,2011-11-10 12:53:00
6:53 AM,19.9,17.1,89,30.38,10.0,Calm,Calm,-,N/A,,Clear,0,2011-11-10 13:53:00
7:53 AM,21.0,17.1,85,30.37,10.0,Calm,Calm,-,N/A,,Clear,0,2011-11-10 14:53:00
8:53 AM,23.0,19.0,85,30.36,10.0,Calm,Calm,-,N/A,,Clear,0,2011-11-10 15:53:00
9:53 AM,26.1,21.9,84,30.33,9.0,Calm,Calm,-,N/A,,Clear,0,2011-11-10 16:53:00
10:53 AM,28.9,24.1,82,30.31,10.0,Calm,Calm,-,N/A,,Clear,0,2011-11-10 17:53:00
11:53 AM,33.1,25.0,72,30.26,10.0,Calm,Calm,-,N/A,,Clear,0,2011-11-10 18:53:00
12:53 PM,36.0,25.0,64,30.23,10.0,Calm,Calm,-,N/A,,Clear,0,2011-11-10 19:53:00
1:53 PM,39.2,24.8,56,30.10,10.0,Calm,Calm,-,N/A,,Clear,0,2011-11-10 20:53:00
2:53 PM,41.0,24.1,51,30.17,10.0,Calm,Calm,-,N/A,,Clear,0,2011-11-10 21:53:00
3:53 PM,41.0,24.1,51,30.15,10.0,Calm,Calm,-,N/A,,Clear,0,2011-11-10 22:53:00
4:53 PM,39.9,23.0,51,30.14,10.0,Calm,Calm,-,N/A,,Clear,0,2011-11-10 23:53:00
5:53 PM,33.1,23.0,66,30.15,10.0,Calm,Calm,-,N/A,,Clear,0,2011-11-11 00:53:00
6:53 PM,28.9,21.9,75,30.16,10.0,Calm,Calm,-,N/A,,Clear,0,2011-11-11 01:53:00
7:53 PM,27.0,21.0,78,30.16,10.0,Calm,Calm,-,N/A,,Clear,0,2011-11-11 02:53:00
8:53 PM,27.0,21.0,78,30.14,10.0,Calm,Calm,-,N/A,,Clear,0,2011-11-11 03:53:00
9:53 PM,26.1,19.9,78,30.13,10.0,East,4.6,-,N/A,,Clear,90,2011-11-11 04:53:00
10:53 PM,26.1,19.9,78,30.11,10.0,Calm,Calm,-,N/A,,Clear,0,2011-11-11 05:53:00
11:53 PM,24.1,19.0,81,30.10,10.0,Calm,Calm,-,N/A,,Clear,0,2011-11-11 06:53:00